Location: Newark
(37.3394°N, 6.0261°W)
Time: 21:58:32
(UTC+00:00)

OTV 5 (USA 277) - Pass Details

Date: 29 October 2019
Orbit: 310 x 324 km, 54.5° (Epoch: 17 October)

Event Time Altitude Azimuth Distance (km) Brightness Sun altitude
Rises 18:47:37 0° 243° (WSW) 2,047 ? -16.0°
Reaches altitude 10° 18:49:41 10° 254° (WSW) 1,222 ? -16.4°
Maximum altitude 18:52:10 32° 320° (NW) 583 ? -16.9°
Enters shadow 18:53:10 24° 2° (N) 730 ? -17.1°
